SCP
0 0 0 0 0 0 0 0 0 0 0 0 0 0 0 0 0 0 0 0 0 0 0 0 0 0 0 0 0 0 0 0 0 0 0 0 0 0 0 0 0 0 0
0 0 0 0 0 0 0 0 0 0 0 0 0 0 0 0 0 0 0 0 0 0 0 0 0 0 0 0 0 0 0 0 0 0 0 0 0 0 0 0 0 0 0
0 0 0 0 0 0 0 0 0 0 0 0 0 0 0 0 0 0 0 0 0 0 0 0 0 0 0 0 0 0 0 0 0 0 0 0 0 0 0 0 0 0 0
0 0 0 0 0 0 0 0 0 0 0 0 0 0 0 0 0 0 0 0 0 0 0 0 0 0 0 0 0 0 0 0 0 0 0 0 0 0 0 0 0 0 0
0 0 0 0 0 0 0 0 0 0 0 0 0 0 0 0 0 0 0 0 0 0 0 0 0 0 0 0 0 0 0 0 0 0 0 0 0 0 0 0 0 0 0
0 0 0 0 0 0 0 0 0 0 0 0 0 0 0 0 0 0 0 0 0 0 0 0 0 0 0 0 0 0 0 0 0 0 0 0 0 0 0 0 0 0 0
0 0 0 0 0 0 0 0 0 0 0 0 0 0 0 0 0 0 0 0 0 0 0 0 0 0 0 0 0 0 0 0 0 0 0 0 0 0 0 0 0 0 0
0 0 0 0 0 0 0 0 0 0 0 0 0 0 0 0 0 0 0 0 0 0 0 0 0 0 0 0 0 0 0 0 0 0 0 0 0 0 0 0 0 0 0
0 0 0 0 0 0 0 0 0 0 0 0 0 0 0 0 0 0 0 0 0 0 0 0 0 0 0 0 0 0 0 0 0 0 0 0 0 0 0 0 0 0 0
0 0 0 0 0 0 0 0 0 0 0 0 0 0 0 0 0 0 0 0 0 0 0 0 0 0 0 0 0 0 0 0 0 0 0 0 0 0 0 0 0 0 0
0 0 0 0 0 0 0 0 0 0 0 0 0 0 0 0 0 0 0 0 0 0 0 0 0 0 0 0 0 0 0 0 0 0 0 0 0 0 0 0 0 0 0
0 0 0 0 0 0 0 0 0 0 0 0 0 0 0 0 0 0 0 0 0 0 0 0 0 0 0 0 0 0 0 0 0 0 0 0 0 0 0 0 0 0 0
0 0 0 0 0 0 0 0 0 0 0 0 0 0 0 0 0 0 0 0 0 0 0 0 0 0 0 0 0 0 0 0 0 0 0 0 0 0 0 0 0 0 0
0 0 0 0 0 0 0 0 0 0 0 0 0 0 0 0 0 0 0 0 0 0 0 0 0 0 0 0 0 0 0 0 0 0 0 0 0 0 0 0 0 0 0
0 0 0 0 0 0 0 0 0 0 0 0 0 0 0 0 0 0 0 0 0 0 0 0 0 0 0 0 0 0 0 0 0 0 0 0 0 0 0 0 0 0 0
0 0 0 0 0 0 0 0 0 0 0 0 0 0 0 0 0 0 0 0 0 0 0 0 0 0 0 0 0 0 0 0 0 0 0 0 0 0 0 0 0 0 0
0 0 0 0 0 0 0 0 0 0 0 0 0 0 0 0 0 0 0 0 0 0 0 0 0 0 0 0 0 0 0 0 0 0 0 0 0 0 0 0 0 0 0
0 0 0 0 0 0 0 0 0 0 0 0 0 0 0 0 0 0 0 0 0 0 0 0 0 0 0 0 0 0 0 0 0 0 0 0 0 0 0 0 0 0 0
0 0 0 0 0 0 0 0 0 0 0 0 0 0 0 0 0 0 0 0 0 0 0 0 0 0 0 0 0 0 0 0 0 0 0 0 0 0 0 0 0 0 0
0 0 0 0 0 0 0 0 0 0 0 0 0 0 0 0 0 0 0 0 0 0 0 0 0 0 0 0 0 0 0 0 0 0 0 0 0 0 0 0 0 0 0
0 1 1 1 0 0 0 0 0 0 0 0 0 0 0 0 0 0 0 0 0 0 0 0 0 0 0 0 0 0 0 0 0 0 0 0 0 0 0 0 0 0 0
1 1 1 1 1 1 0 0 0 0 0 0 0 0 0 0 0 0 0 0 0 0 0 0 0 0 0 0 0 0 0 0 0 0 0 0 0 0 0 0 0 0 0
1 1 1 1 1 1 1 1 1 0 0 0 0 0 0 0 0 0 0 0 0 0 0 0 0 0 0 0 0 0 0 0 0 0 0 0 0 0 0 0 0 0 0
0 0 1 1 1 1 1 1 1 1 1 1 0 0 0 0 0 0 0 0 0 0 0 0 0 0 0 0 0 0 0 0 0 0 0 0 0 0 0 0 0 0 0
0 0 1 1 1 1 1 1 1 1 1 1 1 1 0 0 0 0 0 0 0 0 0 0 0 0 0 0 0 0 0 0 0 0 0 0 0 0 0 0 0 0 0
0 0 1 1 1 1 1 1 1 1 1 1 1 1 0 0 0 0 0 0 0 0 0 0 0 0 0 0 0 0 0 0 0 0 0 0 0 0 0 0 0 0 0
Wind_Speed
6 8 10 4 4 4 4 4 5 5 5 6 6 5 5 5 5 5 5 6 6 6 7 7 6 5 5 5 5 4 4 6 7 7 9 9 10 10 10 10 11 10 12
8 9 10 5 4 4 4 4 5 5 5 6 6 6 5 5 5 5 5 5 5 6 6 7 7 6 6 5 5 4 5 5 6 7 8 9 10 9 9 9 7 7 12
9 9 9 6 5 4 4 5 5 5 6 6 6 5 5 5 5 5 5 5 5 6 6 6 6 6 6 5 4 4 5 5 5 6 7 6 8 10 9 9 9 10 11
9 8 7 7 5 5 5 5 5 5 6 6 6 5 5 5 5 5 6 6 5 5 6 6 6 6 6 5 4 4 5 4 4 5 5 5 6 10 9 9 9 10 10
8 7 9 7 5 5 5 5 5 5 5 5 5 5 5 5 5 5 5 5 5 5 5 5 5 5 5 5 5 5 4 3 2 4 2 4 5 10 9 8 9 10 10
8 8 10 6 5 5 4 5 5 5 5 5 5 5 5 5 5 5 5 4 5 5 5 5 5 5 5 5 5 4 3 1 3 2 2 3 5 9 9 9 9 9 9
8 7 10 7 5 5 4 4 4 5 5 5 5 5 5 5 4 4 4 4 4 4 4 5 4 4 5 5 5 4 2 1 2 1 2 3 6 10 9 9 8 9 10
7 7 9 9 6 5 4 4 4 4 4 4 4 4 4 4 4 4 4 3 3 3 3 4 5 5 5 5 4 4 3 3 1 1 2 4 8 9 9 8 9 10 10
7 7 7 7 7 6 5 4 3 4 4 4 4 3 3 3 3 3 3 3 3 3 3 3 4 5 5 4 4 3 2 3 2 1 2 3 8 8 8 8 9 10 10
7 6 6 6 6 5 6 6 4 4 3 3 3 2 0 1 2 2 2 3 3 3 3 3 3 3 3 3 2 2 0 3 1 1 2 5 8 7 7 8 10 10 10
6 5 5 5 4 3 4 6 5 5 4 3 3 2 2 1 1 3 4 4 2 2 2 1 1 1 1 3 2 1 3 1 1 1 2 7 6 6 7 8 9 9 9
7 6 5 4 4 3 2 4 2 3 3 2 1 1 1 1 1 2 6 3 1 0 1 1 1 2 3 1 3 3 1 1 0 1 3 7 6 6 6 7 8 9 9
7 6 5 4 3 3 2 2 1 1 1 1 1 1 1 1 0 1 0 3 2 2 1 2 2 1 1 1 1 1 1 2 1 1 4 6 5 5 6 6 7 8 8
7 7 5 5 4 3 1 1 1 1 1 0 1 1 0 1 1 1 1 1 1 0 1 1 1 2 2 2 2 1 1 1 1 1 4 6 4 5 6 6 7 7 7
7 6 6 5 4 3 2 2 1 1 1 0 0 0 2 1 1 1 1 2 2 1 1 1 2 2 2 1 1 1 2 1 1 1 2 7 5 4 5 5 6 6 7
6 6 5 5 5 4 3 2 2 1 1 1 0 0 1 2 1 2 1 1 2 2 2 2 2 1 1 2 1 2 2 1 1 1 0 5 6 5 5 5 5 6 7
7 6 5 6 5 5 4 3 2 1 1 1 0 1 1 2 1 2 1 1 1 2 1 1 1 1 1 1 1 1 1 1 1 1 1 1 4 7 7 5 5 5 6
6 6 5 4 5 5 4 2 2 1 1 0 0 0 0 1 1 2 1 1 2 2 1 1 1 1 1 1 1 2 1 1 1 1 1 1 1 2 6 7 5 4 5
6 6 6 5 5 5 4 3 2 1 1 1 0 1 1 1 1 2 1 2 2 1 1 2 1 2 1 1 1 1 1 1 0 1 0 0 0 1 2 6 7 5 4
6 6 6 6 5 5 4 3 2 2 1 1 0 0 1 1 1 2 0 1 2 1 1 1 1 1 2 2 2 1 1 1 0 0 1 1 1 2 2 2 4 5 6
6 6 6 6 5 4 3 3 2 2 1 1 1 0 0 1 1 1 2 0 1 1 2 2 2 1 1 1 2 1 1 1 0 0 1 1 1 1 1 2 2 2 4
6 6 7 6 5 5 4 3 2 1 1 1 1 1 0 1 2 1 1 1 0 0 1 1 2 2 1 1 3 3 2 2 1 1 1 1 1 1 2 2 1 2 2
6 6 5 6 6 6 5 4 3 2 1 1 1 1 0 1 1 1 1 1 1 1 0 1 2 2 2 1 2 3 3 2 1 2 1 1 1 1 1 0 1 1 2
6 7 6 7 7 6 6 5 4 3 2 1 1 1 1 0 1 1 1 1 1 1 1 2 1 2 3 2 1 2 3 3 3 1 1 1 0 1 1 1 0 1 2
6 6 6 6 6 6 6 6 5 3 2 1 1 1 1 1 0 1 1 1 1 1 1 2 1 3 2 3 2 2 2 2 3 3 2 1 0 0 0 1 1 1 1
6 6 6 7 6 6 6 5 5 4 3 2 2 1 1 0 0 0 0 0 1 1 1 2 2 2 2 3 3 2 2 2 2 2 2 2 2 1 1 1 2 1 1
Wind_Direction
127 118 115 119 105 97 95 97 99 100 101 103 101 100 99 95 89 86 82 78 72 71 71 72 79 83 85 90 92 90 103 125 136 141 147 152 153 153 158 163 169 151 141
125 122 123 123 110 100 99 103 101 99 100 100 99 102 101 95 91 86 83 79 73 73 71 70 72 74 76 85 88 89 100 124 137 145 152 158 157 158 161 166 165 133 149
128 127 135 121 116 108 104 106 100 96 101 102 99 99 97 92 86 84 81 80 73 70 72 71 73 70 69 74 81 90 100 119 139 160 179 168 149 154 162 161 154 150 153
130 133 129 119 121 112 106 107 103 99 100 103 101 96 92 88 83 80 77 75 71 68 69 70 70 66 64 67 73 83 95 113 142 191 192 157 147 140 154 155 157 158 155
133 136 120 126 122 115 109 110 108 104 101 101 101 96 91 85 79 77 75 73 69 69 69 67 64 62 60 64 70 74 80 111 165 218 166 146 136 136 150 157 158 156 153
139 139 121 133 127 119 112 109 108 105 102 99 95 90 88 82 79 79 76 74 74 72 68 62 59 55 53 58 63 68 71 98 225 193 143 143 134 139 155 160 158 156 157
139 136 126 133 131 125 117 113 111 106 102 96 91 86 84 80 75 73 72 76 75 74 70 61 55 51 54 54 57 66 60 315 269 117 108 121 115 131 148 155 155 155 159
142 137 127 139 138 134 127 119 112 107 101 96 91 85 81 79 74 71 67 71 71 68 64 61 58 54 55 53 51 61 57 299 192 91 105 109 112 128 137 143 149 151 156
143 140 140 146 147 151 141 129 118 109 102 96 89 80 80 86 82 71 70 57 56 56 56 69 62 55 59 61 60 62 43 335 300 98 115 111 123 136 142 144 144 151 155
145 147 145 146 146 158 148 137 130 121 114 116 109 90 111 175 144 119 109 70 50 46 55 67 60 58 69 84 82 76 72 268 281 104 109 111 127 147 155 154 152 154 157
149 154 153 149 148 161 145 132 158 159 146 174 155 156 230 215 138 146 85 75 49 40 44 41 39 54 177 149 144 185 243 270 53 46 77 107 135 154 164 165 160 159 160
161 165 160 162 156 164 148 143 182 177 150 200 127 175 226 51 16 25 106 113 95 43 157 156 241 222 244 175 151 190 245 341 13 105 104 122 144 158 165 165 162 162 165
163 166 172 167 167 176 163 161 177 193 154 189 129 301 354 329 42 331 132 156 174 201 224 153 200 260 336 360 359 334 359 349 356 71 99 121 143 158 162 159 160 164 170
167 170 175 172 172 188 191 180 196 194 167 199 126 281 315 314 339 349 325 339 320 350 343 327 333 12 347 345 339 350 12 339 1 45 93 117 140 163 167 163 160 163 165
172 174 174 180 174 182 199 242 215 242 255 166 282 143 310 297 315 331 332 329 321 336 317 319 341 353 330 329 340 353 3 11 4 24 98 116 126 146 166 166 163 164 166
178 182 176 186 177 185 195 218 235 243 235 268 267 60 301 313 339 321 307 323 332 340 347 333 340 334 324 339 342 351 343 345 14 346 94 129 134 139 154 163 168 172 175
182 180 183 186 180 193 206 216 226 248 250 268 88 71 328 319 342 311 312 316 335 329 319 304 318 328 311 315 329 335 321 332 357 353 301 154 143 147 151 157 163 176 185
186 177 182 186 182 188 201 216 239 267 268 261 10 53 351 337 332 305 318 333 330 308 314 313 307 336 345 341 349 338 339 14 345 321 272 217 186 155 153 157 170 178 193
181 180 181 186 185 189 194 204 218 206 230 268 281 327 353 329 332 306 326 346 310 310 322 315 10 333 340 337 327 343 334 338 355 319 337 309 227 223 192 156 168 178 195
178 180 183 182 183 190 193 191 204 202 196 203 206 336 319 335 334 305 299 340 308 311 322 347 347 332 318 322 323 358 327 323 297 91 248 226 235 236 228 205 187 172 174
174 176 179 182 180 189 189 195 194 190 198 185 188 113 302 319 313 298 311 44 304 321 332 339 321 303 302 307 272 265 204 189 145 189 228 264 234 236 229 224 225 222 179
173 173 178 182 176 186 180 185 187 205 199 181 195 109 311 300 291 268 295 271 252 310 337 333 317 310 316 315 299 287 265 186 175 129 136 200 277 246 223 210 216 231 245
174 176 182 184 179 184 181 176 167 169 190 175 166 143 271 310 299 320 318 300 308 285 315 301 303 293 306 303 308 304 302 315 314 137 94 38 340 315 280 195 205 256 248
181 176 179 175 176 177 180 177 179 185 187 194 199 139 145 333 321 312 305 307 300 294 306 283 290 286 281 284 250 289 311 327 297 271 178 117 66 354 331 308 252 205 237
181 173 166 166 170 172 177 177 188 196 192 172 169 123 197 129 318 315 308 289 272 280 297 303 305 284 279 290 298 297 290 268 271 284 282 289 249 194 239 253 266 241 229
171 166 159 158 159 164 175 177 183 180 179 169 167 160 188 136 35 12 328 291 278 292 275 271 276 264 292 303 299 296 292 294 290 280 275 276 279 256 202 222 242 246 233